PDT,Max TemperatureF,Mean TemperatureF,Min TemperatureF,Max Dew PointF,MeanDew PointF,Min DewpointF,Max Humidity, Mean Humidity, Min Humidity, Max Sea Level PressureIn, Mean Sea Level PressureIn, Min Sea Level PressureIn, Max VisibilityMiles, Mean VisibilityMiles, Min VisibilityMiles, Max Wind SpeedMPH, Mean Wind SpeedMPH, Max Gust SpeedMPH,PrecipitationIn, CloudCover, Events, WindDirDegrees
2013-4-1,73,62,52,36,31,23,48,33,16,30.01,29.94,29.88,10,10,10,18,11,28,0.00,1,,228
2013-4-2,79,60,43,38,31,24,56,34,14,30.06,29.99,29.92,10,10,10,14,4,,0.00,2,,199
2013-4-3,84,65,46,37,31,23,58,31,13,30.09,30.01,29.94,10,10,10,10,5,,0.00,3,,195
2013-4-4,81,70,61,40,35,31,40,29,20,29.98,29.92,29.86,10,10,10,28,12,36,0.00,4,,203
2013-4-5,81,64,48,37,32,26,50,30,15,29.96,29.89,29.83,10,10,10,21,7,26,0.00,3,,231
2013-4-6,80,63,46,36,33,29,56,34,15,29.99,29.91,29.83,10,10,10,14,5,,0.00,0,,233
2013-4-7,84,67,52,36,33,27,47,31,15,29.91,29.78,29.64,10,10,10,32,8,44,0.00,0,,214
2013-4-8,68,57,48,36,25,10,63,30,14,29.81,29.60,29.49,10,9,4,33,24,43,0.00,2,Rain,276
2013-4-9,73,61,50,17,9,0,27,15,6,30.05,29.89,29.81,10,10,10,29,19,40,0.00,0,,333
2013-4-10,82,66,51,25,15,9,27,14,8,30.14,30.02,29.91,10,10,10,15,9,,0.00,0,,281
2013-4-11,84,65,46,37,24,20,36,22,11,29.91,29.77,29.67,10,10,9,15,6,20,0.00,1,,151
2013-4-12,86,68,51,34,28,26,42,23,12,29.83,29.75,29.68,10,10,10,12,6,20,0.00,0,,237
2013-4-13,88,70,54,32,29,24,33,20,13,29.74,29.63,29.50,10,10,10,29,9,39,0.00,0,,245
2013-4-14,87,73,59,34,30,22,32,21,13,29.63,29.53,29.42,10,10,10,36,16,46,0.00,0,,229
2013-4-15,79,68,55,28,24,18,34,21,13,29.63,29.53,29.46,10,9,3,44,26,58,0.00,0,,216
2013-4-16,68,54,45,26,18,12,36,25,13,29.98,29.80,29.64,10,10,10,24,16,30,0.00,4,,306
2013-4-17,69,56,45,15,8,0,29,16,8,30.19,30.08,29.99,10,10,10,20,13,36,0.00,1,,345
2013-4-18,70,58,46,8,5,1,21,13,7,30.30,30.23,30.16,10,10,10,12,7,18,0.00,0,,38
2013-4-19,80,60,39,23,11,4,26,15,6,30.24,30.09,29.91,10,10,10,15,5,20,0.00,1,,200
2013-4-20,84,65,46,35,23,18,33,20,9,30.03,29.95,29.88,10,10,10,12,4,,0.00,0,,160
2013-4-21,90,69,48,32,28,21,43,22,9,29.99,29.90,29.81,10,10,10,14,6,,0.00,0,,207
2013-4-22,93,72,54,30,27,25,34,20,9,29.90,29.78,29.67,10,10,10,16,6,24,0.00,0,,185
2013-4-23,80,70,62,28,15,6,26,12,7,29.97,29.87,29.74,10,10,9,21,12,28,0.00,0,,64
2013-4-24,84,66,50,12,9,3,19,11,5,29.90,29.82,29.77,10,10,10,16,5,25,0.00,3,,116
2013-4-25,86,65,46,33,26,15,46,23,8,29.94,29.85,29.79,10,10,9,15,7,16,0.00,0,,191
2013-4-26,89,71,53,34,25,10,47,23,6,30.10,30.04,29.95,10,10,10,12,5,17,0.00,0,,145
2013-4-27,93,73,55,33,24,15,39,19,6,30.12,30.03,29.92,10,10,10,15,6,,0.00,0,,189
2013-4-28,97,76,55,34,26,15,33,18,5,29.95,29.86,29.76,10,10,10,16,5,23,0.00,0,,196
2013-4-29,98,76,55,38,31,20,37,20,6,29.81,29.71,29.59,10,10,10,20,5,26,0.00,0,,221
2013-4-30,95,78,62,42,34,27,36,21,9,29.68,29.58,29.52,10,10,10,23,9,31,0.00,2,,249